Location: Airlie Beach - Cannonvale QLD, Australia
(20.2768°S, 148.7558°E)
Time: 01:11:14
(UTC+10:00)

Envisat - Visible Passes

Search period start: 30 September 2020 00:00
Search period end: 10 October 2020 00:00
Orbit: 764 x 766 km, 98.1° (Epoch: 29 September)

Date Brightness Start Highest point End Pass type
(mag) Time Alt. Az. Time Alt. Az. Time Alt. Az.
01 Oct 4.5 05:04:45 10° NE 05:09:30 41° ESE 05:14:18 10° S visible
01 Oct 6.1 19:05:20 10° SW 19:08:17 16° WSW 19:11:14 10° WNW visible
02 Oct 6.1 04:29:57 10° ENE 04:32:58 16° ESE 04:36:01 10° SE visible
02 Oct 4.6 18:27:00 10° S 18:31:46 40° WSW 18:36:29 10° NW visible
04 Oct 5.1 04:53:46 10° NE 04:58:12 31° ESE 05:02:40 10° SSE visible
04 Oct 5.9 18:53:17 10° SSW 18:57:01 21° WSW 19:00:45 10° WNW visible
05 Oct 6.4 04:19:56 10° E 04:21:44 12° ESE 04:23:31 10° SE visible
06 Oct 6.7 19:21:47 10° WSW 19:22:11 10° WSW 19:22:36 10° WSW visible
07 Oct 5.6 04:42:56 10° NE 04:46:55 24° ESE 04:50:56 10° SSE visible
07 Oct 5.4 18:41:28 10° SSW 18:45:45 27° WSW 18:49:59 10° NW visible
09 Oct 4.3 05:07:21 10° NNE 05:12:11 46° ESE 05:17:03 10° S visible
09 Oct 6.3 19:08:23 10° SW 19:10:57 14° WSW 19:13:31 10° WNW visible
